Wind_Speed
12 12 13 14 14 14 16 17 18 19 20 21 21 21 21 23 23 24 25 25 25 26 27 28 30 30 30 31 32 32 32 32 33 33 33 33 33 32 33 33 33 33 33 33
11 11 11 12 12 13 13 15 16 17 19 19 20 20 21 22 22 22 24 25 26 27 28 28 29 30 31 31 32 33 33 33 33 33 33 33 33 33 33 33 33 33 33 33
10 9 10 11 11 12 12 13 13 14 16 17 18 19 20 21 22 22 24 25 26 27 28 28 29 29 30 31 32 33 34 34 34 34 34 34 33 33 34 34 34 33 33 33
8 8 9 9 10 10 11 11 12 13 14 16 17 18 19 21 22 22 24 25 26 27 28 28 29 29 30 31 32 33 33 33 34 34 34 34 33 33 33 33 33 33 33 34
6 7 7 8 8 9 10 10 11 12 14 15 16 18 17 19 20 21 23 24 25 27 27 28 29 30 31 32 32 33 33 33 34 34 34 34 34 34 34 34 35 35 36 36
5 5 5 6 6 7 8 10 11 12 13 14 15 17 17 18 19 20 22 23 25 26 27 28 29 29 30 31 32 33 34 34 34 35 35 35 36 36 36 36 36 37 38 38
4 3 4 5 5 6 7 8 10 12 13 14 15 16 17 18 19 20 21 23 24 25 27 27 28 29 30 31 32 32 33 33 34 35 36 36 36 37 38 38 39 40 40 40
1 1 2 3 4 6 7 8 10 12 13 13 15 16 16 18 20 20 21 23 23 24 26 28 28 29 29 30 31 32 32 33 35 36 36 37 38 39 39 40 41 41 41 42
1 2 2 3 5 6 8 9 11 12 13 14 15 16 17 18 20 20 21 22 23 24 26 27 28 29 29 30 30 31 33 34 36 36 37 38 39 40 41 41 42 42 43 43
3 4 4 5 6 7 9 10 11 13 15 15 16 17 17 18 19 19 20 20 21 22 24 25 26 28 29 30 31 32 34 34 35 37 38 39 40 41 42 43 43 44 44 45
6 7 7 7 8 9 10 11 12 14 15 16 17 17 18 18 18 18 18 19 20 22 23 25 26 27 29 31 32 34 35 36 37 38 38 39 40 41 42 43 44 44 45 45
9 9 9 10 10 11 11 12 13 14 15 16 16 16 16 18 18 19 19 20 21 22 23 25 27 28 29 30 31 33 34 35 36 37 38 39 40 41 42 43 44 44 44 45
10 11 11 11 11 12 13 14 15 16 16 16 17 16 17 18 19 20 20 21 22 24 25 27 28 29 30 31 32 33 34 36 37 38 39 40 41 42 43 43 43 44 44 44
12 12 13 13 13 14 14 15 17 17 17 17 17 18 19 21 21 21 22 23 25 26 27 29 30 31 32 33 34 35 36 38 39 40 41 42 42 43 43 43 44 44 44 45
14 14 15 15 16 16 16 17 18 19 19 20 19 21 22 24 24 24 25 27 28 29 30 31 32 33 34 35 36 37 38 39 40 40 41 42 43 43 44 44 44 44 44 44
17 17 17 18 19 18 18 19 20 21 22 23 23 23 25 26 26 27 28 30 31 32 33 33 35 36 37 38 38 39 40 40 41 41 42 42 43 44 44 44 44 44 44 44
20 21 21 21 22 22 21 21 23 23 24 25 25 25 27 28 29 30 31 33 34 35 35 36 37 38 38 40 41 41 42 43 43 43 43 43 44 44 44 44 44 44 44 43
23 24 24 24 24 24 23 24 25 26 26 27 28 29 29 30 31 33 34 35 36 37 38 39 40 40 41 42 42 42 43 43 43 44 44 44 44 45 45 45 44 44 44 43
26 27 27 28 29 28 27 27 27 28 29 29 30 32 33 34 35 36 36 37 38 38 39 40 41 42 43 43 44 44 45 45 45 45 45 46 46 46 45 45 45 45 44 44
29 30 30 31 31 31 30 30 31 32 32 33 34 35 36 37 37 37 38 39 39 40 41 42 43 44 44 45 46 46 46 46 46 46 46 46 46 46 45 45 45 45 44 44
31 32 32 32 33 33 33 34 35 35 36 36 37 38 39 39 40 39 40 40 41 42 43 43 44 45 46 46 47 47 47 47 47 47 47 47 47 46 46 45 45 45 44 44
33 34 34 34 35 35 36 37 37 38 39 39 40 40 41 41 41 42 42 42 43 44 44 45 46 46 47 48 48 48 48 48 48 48 47 47 47 46 45 44 44 44 44 43
35 36 36 37 37 37 38 39 39 40 41 41 42 42 43 43 43 43 44 44 45 46 47 47 47 48 48 48 49 49 48 48 48 47 47 47 46 45 45 44 44 43 43 42
37 38 38 38 38 39 40 41 41 42 43 43 43 44 45 45 45 45 45 46 46 48 48 49 49 49 49 49 49 49 49 48 48 47 46 46 45 44 43 43 43 43 42 41
40 40 41 41 41 42 42 43 44 45 45 45 46 46 46 46 46 47 48 48 49 50 50 50 50 50 50 49 49 49 48 48 47 46 45 45 44 43 43 42 42 42 42 41
41 42 44 44 43 45 44 45 45 46 46 47 47 47 47 48 49 49 50 51 51 51 51 51 51 50 49 49 48 47 47 47 46 45 44 44 43 43 42 42 41 41 41 41
Wind_Direction
178 181 188 196 203 210 212 218 221 224 227 232 235 237 238 238 239 241 245 247 248 251 253 255 257 261 263 265 267 268 271 273 275 277 279 281 282 283 284 285 285 286 287 288
176 185 190 197 203 208 212 216 221 226 231 235 237 239 240 240 243 246 248 249 251 253 257 259 261 263 265 265 266 268 270 273 275 277 279 281 282 282 284 285 285 286 287 288
180 185 192 197 201 205 211 217 223 229 232 238 242 244 244 243 246 249 251 253 254 256 258 260 263 265 265 267 268 269 271 273 276 277 278 280 281 283 284 285 286 286 288 289
176 181 187 193 199 205 215 223 226 233 237 242 245 248 247 249 249 250 251 255 257 260 262 263 265 266 268 269 270 271 273 274 276 277 278 279 281 282 283 284 285 286 288 289
170 176 183 192 203 214 222 229 234 241 245 248 250 254 252 254 252 253 255 257 259 261 263 266 268 269 270 270 271 272 273 275 276 277 278 279 280 281 282 283 285 286 288 289
164 176 186 195 209 222 227 236 241 246 252 254 257 260 258 258 257 257 259 262 262 261 263 268 271 272 272 272 273 274 275 276 276 276 277 279 281 282 283 284 285 287 288 290
150 173 196 212 223 230 234 239 244 251 256 261 263 267 267 264 263 263 263 266 266 266 266 269 272 274 274 274 275 276 277 277 277 278 279 280 281 282 283 285 286 287 288 289
128 169 212 229 243 251 253 256 261 264 266 268 271 273 274 271 271 270 269 269 271 270 269 270 273 275 275 275 275 276 277 277 279 279 280 281 281 282 283 284 285 286 288 289
287 272 263 264 264 266 267 269 273 276 275 276 277 280 280 278 276 275 273 272 272 273 272 273 275 276 277 278 278 278 279 279 279 280 280 281 282 283 284 285 286 286 287 288
280 280 276 276 276 277 278 278 279 282 286 284 282 284 287 283 280 279 277 277 277 277 276 278 280 279 280 282 282 282 281 281 281 281 282 282 283 284 284 285 286 287 288 288
280 281 280 279 281 282 283 284 284 284 285 287 286 287 288 286 283 281 280 280 280 279 279 278 280 281 283 285 285 285 284 284 284 284 284 285 285 286 286 286 287 288 288 288
282 281 282 282 283 283 284 285 285 286 287 289 290 291 287 285 283 282 282 283 282 282 283 283 283 286 287 287 287 287 287 286 286 286 286 287 287 287 288 288 288 289 289 289
288 285 283 282 283 285 286 287 287 287 288 290 290 292 288 285 285 286 285 285 286 286 286 285 285 287 289 290 290 290 289 289 288 288 288 289 289 289 289 290 290 290 290 290
289 287 287 288 288 286 285 286 287 288 288 288 289 288 288 287 287 288 287 286 287 289 289 288 287 288 290 291 292 292 292 292 291 291 291 290 290 290 290 291 291 291 291 291
289 288 288 289 288 287 285 285 286 287 288 287 287 288 288 289 290 289 289 289 289 290 290 290 290 291 292 293 293 294 293 293 293 293 292 292 291 291 292 292 291 291 291 291
289 288 286 287 288 287 287 287 286 285 286 286 286 287 287 290 290 290 289 289 290 291 291 291 291 291 292 293 293 293 293 294 294 294 293 293 293 292 292 292 292 291 291 291
291 289 287 287 287 287 287 286 286 287 286 286 287 287 287 289 290 290 290 291 291 292 291 291 291 291 292 293 293 293 293 293 293 293 293 293 293 293 293 292 292 291 290 290
292 291 289 288 286 288 290 288 287 287 288 288 288 288 288 289 290 291 293 293 293 293 293 293 293 293 293 294 294 294 294 293 293 293 293 293 293 293 292 292 291 291 291 290
291 291 291 290 288 288 288 289 288 289 290 290 289 290 291 292 292 294 294 294 294 294 294 294 294 294 294 295 294 294 294 293 293 293 293 292 293 293 292 292 291 290 290 290
290 291 291 290 289 289 290 290 290 291 291 290 291 292 292 293 294 295 295 296 296 295 295 295 295 295 295 294 294 294 294 294 293 293 293 292 292 292 292 291 291 290 290 290
288 289 290 290 288 290 290 291 291 292 293 292 292 293 294 295 295 296 296 297 297 296 296 296 295 295 295 295 295 295 294 294 294 293 293 292 292 292 291 291 291 290 290 290
288 288 288 288 288 291 291 291 291 292 292 292 293 294 295 295 295 296 296 297 297 297 296 296 296 296 296 296 296 295 295 294 293 292 292 292 292 291 291 291 291 290 290 290
288 288 288 288 289 290 290 290 291 292 293 294 294 295 295 295 295 296 296 297 297 297 297 297 296 296 296 296 296 295 295 294 294 293 292 292 292 291 291 290 290 290 290 290
287 288 288 288 289 289 289 290 291 293 294 295 295 295 295 295 295 296 296 297 297 297 296 296 296 296 296 296 295 295 295 294 294 293 292 292 291 291 291 291 290 290 290 289
288 289 288 288 288 287 288 289 291 293 294 295 296 295 295 296 296 296 296 296 297 297 296 296 296 296 296 296 295 295 295 294 294 293 292 291 291 291 291 291 291 290 290 290
289 289 288 287 287 287 288 289 291 292 294 294 295 294 295 295 295 295 295 296 296 296 296 296 296 296 296 295 295 295 295 295 295 294 292 291 291 291 291 291 290 290 290 290
Height
5713 5716 5719 5722 5725 5728 5730 5734 5737 5741 5744 5747 5750 5753 5756 5758 5761 5764 5766 5769 5771 5773 5775 5777 5778 5778 5779 5780 5780 5780 5781 5781 5780 5780 5779 5778 5777 5776 5775 5773 5771 5769 5768 5766
5716 5718 5720 5723 5725 5727 5730 5733 5736 5739 5742 5745 5747 5750 5753 5755 5758 5760 5762 5764 5767 5769 5770 5771 5772 5773 5773 5773 5773 5773 5774 5774 5773 5773 5772 5771 5770 5769 5767 5766 5764 5762 5760 5758
5717 5720 5721 5723 5725 5728 5730 5733 5736 5738 5740 5742 5745 5748 5750 5752 5754 5756 5758 5760 5762 5763 5765 5766 5766 5766 5766 5766 5766 5767 5767 5766 5766 5765 5765 5764 5763 5761 5760 5759 5757 5755 5753 5751
5719 5720 5722 5724 5726 5728 5730 5733 5735 5737 5739 5741 5743 5745 5747 5748 5750 5752 5754 5755 5757 5758 5759 5760 5760 5760 5760 5759 5759 5760 5759 5759 5758 5758 5757 5756 5755 5754 5753 5751 5750 5748 5746 5744
5721 5722 5724 5725 5727 5729 5730 5732 5734 5735 5737 5739 5740 5742 5745 5745 5746 5748 5749 5750 5752 5753 5753 5754 5753 5753 5753 5753 5752 5752 5752 5752 5751 5750 5749 5748 5747 5746 5745 5743 5742 5740 5738 5736
5723 5724 5725 5726 5727 5729 5730 5732 5733 5734 5735 5737 5738 5739 5741 5742 5743 5744 5745 5746 5746 5747 5747 5747 5747 5746 5746 5746 5745 5745 5745 5744 5743 5743 5742 5741 5740 5738 5737 5735 5734 5732 5730 5727
5724 5725 5726 5727 5728 5729 5730 5732 5732 5733 5733 5735 5735 5736 5738 5738 5738 5739 5740 5741 5741 5741 5741 5741 5741 5740 5740 5739 5738 5738 5737 5737 5736 5735 5734 5733 5731 5730 5729 5727 5725 5723 5721 5718
5725 5726 5727 5727 5728 5729 5729 5730 5732 5732 5732 5732 5732 5732 5734 5734 5734 5734 5735 5735 5735 5735 5735 5735 5734 5734 5733 5732 5731 5731 5730 5729 5728 5727 5725 5724 5723 5721 5719 5717 5715 5713 5711 5708
5726 5727 5727 5727 5727 5728 5728 5728 5729 5729 5729 5729 5729 5730 5730 5730 5730 5730 5730 5730 5730 5730 5729 5729 5728 5727 5726 5725 5724 5723 5722 5721 5720 5718 5717 5715 5713 5712 5710 5708 5705 5703 5701 5698
5726 5727 5727 5727 5727 5727 5727 5727 5727 5726 5726 5726 5727 5726 5727 5726 5725 5725 5725 5725 5725 5724 5723 5722 5721 5720 5719 5718 5717 5716 5714 5713 5711 5709 5708 5706 5704 5702 5700 5697 5695 5692 5690 5687
5726 5726 5726 5726 5725 5725 5725 5725 5724 5724 5723 5723 5723 5725 5722 5721 5721 5721 5721 5720 5719 5718 5717 5716 5715 5714 5712 5711 5709 5708 5706 5704 5702 5700 5698 5696 5694 5691 5689 5687 5684 5681 5678 5676
5724 5725 5724 5724 5724 5723 5723 5722 5722 5722 5721 5719 5719 5723 5718 5717 5716 5716 5716 5715 5714 5713 5711 5710 5709 5707 5705 5703 5702 5700 5697 5695 5693 5691 5689 5686 5684 5681 5678 5676 5673 5670 5667 5664
5723 5723 5723 5722 5724 5722 5720 5719 5718 5718 5717 5716 5716 5719 5714 5712 5712 5711 5711 5710 5708 5707 5705 5704 5702 5700 5698 5696 5694 5691 5689 5686 5684 5682 5679 5676 5673 5671 5668 5665 5662 5659 5656 5652
5720 5720 5720 5720 5719 5718 5717 5716 5715 5714 5713 5713 5712 5712 5710 5708 5707 5707 5705 5704 5702 5701 5699 5697 5695 5693 5690 5688 5686 5683 5680 5677 5675 5672 5669 5666 5663 5660 5657 5654 5650 5647 5644 5641
5718 5718 5717 5716 5715 5714 5713 5713 5711 5710 5709 5708 5708 5706 5705 5703 5702 5701 5699 5697 5696 5694 5692 5689 5687 5685 5682 5680 5677 5674 5671 5668 5665 5662 5659 5655 5652 5648 5645 5642 5639 5636 5632 5629
5714 5714 5713 5713 5711 5709 5709 5708 5707 5705 5704 5703 5702 5701 5699 5697 5696 5694 5692 5690 5688 5686 5684 5681 5679 5676 5673 5670 5668 5664 5661 5658 5655 5651 5648 5644 5641 5637 5634 5630 5627 5624 5620 5617
5710 5709 5708 5708 5706 5705 5705 5704 5701 5700 5698 5697 5696 5695 5692 5691 5688 5686 5684 5682 5680 5677 5675 5672 5669 5666 5663 5660 5657 5654 5651 5647 5644 5640 5637 5633 5629 5626 5622 5619 5615 5612 5608 5604
5705 5703 5702 5701 5701 5699 5701 5697 5695 5693 5692 5690 5688 5687 5685 5683 5680 5678 5676 5673 5670 5668 5665 5662 5659 5656 5653 5650 5646 5643 5639 5636 5632 5629 5625 5621 5617 5614 5610 5606 5603 5599 5596 5593
5699 5697 5696 5695 5693 5692 5693 5691 5688 5686 5685 5683 5681 5679 5677 5674 5672 5670 5667 5664 5661 5658 5655 5652 5648 5645 5642 5639 5635 5631 5628 5624 5620 5616 5612 5608 5605 5601 5597 5594 5590 5587 5584 5580
5692 5691 5690 5687 5685 5685 5686 5683 5680 5679 5677 5675 5672 5670 5668 5665 5663 5661 5657 5654 5651 5647 5644 5641 5638 5634 5631 5627 5623 5619 5615 5611 5607 5603 5599 5595 5592 5588 5585 5581 5578 5574 5571 5568
5685 5683 5682 5679 5677 5677 5676 5674 5672 5671 5669 5666 5663 5661 5658 5656 5653 5651 5647 5643 5640 5636 5633 5629 5626 5622 5618 5614 5610 5606 5602 5598 5594 5590 5587 5583 5579 5575 5572 5568 5565 5561 5558 5555
5677 5675 5673 5671 5669 5671 5667 5664 5663 5661 5658 5656 5653 5651 5648 5645 5642 5639 5636 5632 5629 5625 5621 5617 5613 5609 5605 5600 5597 5593 5589 5585 5581 5577 5573 5569 5566 5562 5558 5555 5552 5549 5545 5542
5668 5667 5664 5663 5663 5660 5656 5654 5652 5649 5647 5645 5643 5640 5637 5634 5631 5627 5624 5620 5616 5612 5608 5604 5600 5596 5592 5587 5583 5579 5575 5571 5567 5564 5560 5556 5553 5549 5546 5543 5539 5536 5533 5530
5659 5657 5654 5653 5652 5649 5646 5643 5641 5638 5636 5634 5631 5628 5625 5622 5618 5615 5611 5608 5604 5600 5595 5591 5587 5583 5578 5574 5569 5565 5561 5557 5554 5550 5547 5543 5540 5537 5533 5530 5527 5524 5521 5518
5649 5646 5643 5642 5641 5637 5636 5632 5630 5627 5624 5621 5619 5615 5612 5608 5605 5602 5598 5594 5590 5586 5582 5577 5573 5569 5565 5560 5556 5551 5547 5543 5540 5537 5533 5530 5527 5524 5521 5518 5514 5511 5508 5505
5639 5635 5631 5630 5628 5625 5624 5621 5618 5615 5612 5609 5606 5603 5599 5595 5592 5588 5584 5581 5576 5572 5568 5564 5559 5555 5551 5547 5542 5538 5534 5530 5526 5523 5520 5517 5514 5511 5508 5505 5503 5499 5496 5493